YUNYAO-1 18 (58758 NORAD) Tracking and Keplerian Element Data

This shows tracking and keplerian element data for the satellite.

Feedback or suggestion? Click here.




ElementValue
Catalog58758
NameYUNYAO-1 18
Epoch Orbit26
Epoch Day12.97668249
Epoch Year2024
RAAN163.3013
Inclination49.9885
Eccentricity0.0014181
Argument of Perigee293.8133
Mean Anonmoly66.1335
Mean Motion15.25845577
Decay Rate0.00023341
L11 58758U 24009A 24012.97668249 .00023341 00000+0 90611-3 0 9990
L22 58758 49.9885 163.3013 0014181 293.8133 66.1335 15.25845577 260



Live tracking and technical data element details for YUNYAO-1 18 (NORAD 58758). YUNYAO-1 18 can be tracked NOW for your location showing map with azimuth and elevation plus other details from your city location.







IsCatalogInMostPopularTable: catalog: 58758, numindb: 25
Update: records affected: 1



GetName: 58758 YUNYAO-1 18

Hit Count: updated at: Wed, 17 Apr 2024 02:52:56 GMT